Location: Hopewell Observatory
(38.8698°N, 77.6988°W)
Time: 06:24:47
(UTC-04:00)

Okean 1-7 Rocket - Pass Details

Date: 26 May 2018
Orbit: 615 x 651 km, 82.5° (Epoch: 20 June)

Event Time Altitude Azimuth Distance (km) Brightness Sun altitude
Exits shadow 23:27:08 64° 261° (W) 720 3.8 -25.4°
Maximum altitude 23:27:21 65° 278° (W) 714 3.9 -25.4°
Drops below altitude 10° 23:31:53 10° 1° (N) 2,051 7.0 -25.8°
Sets 23:34:09 0° 5° (N) 2,961 8.0 -26.0°
